,,,PA_Meas_PMT16A,,PR_Meas_QMR101_102,,RH_Meas_QMH101,,SR_Meas_QMS101,,TA_Meas_QMH101,,GenWind,,GenWind,
date,time,status,PA,status,PR,status,RH,status,SR,status,TA,status,DirAvg,status,SpdAvg,
2008-07-07, 00:00:05,VALID,1006.33,VALID,0,VALID,95.5517,VALID,0,VALID,23.7425,VALID,355,VALID,0.25,
2008-07-07, 00:01:05,VALID,1006.33,VALID,0,VALID,95.5975,VALID,0.100563,VALID,23.7814,VALID,352,VALID,0.0789063,
2008-07-07, 00:02:05,VALID,1006.41,VALID,0,VALID,95.6738,VALID,0,VALID,23.8203,VALID,205,VALID,1.44453,
2008-07-07, 00:03:05,VALID,1006.49,VALID,0,VALID,95.5517,VALID,0,VALID,23.8398,VALID,162,VALID,1.61484,
2008-07-07, 00:04:05,VALID,1006.53,VALID,0,VALID,95.4754,VALID,0,VALID,23.8787,VALID,143,VALID,1.63398,
2008-07-07, 00:05:05,VALID,1006.55,VALID,0,VALID,95.3915,VALID,0,VALID,23.9195,VALID,114,VALID,1.60625,
2008-07-07, 00:06:05,VALID,1006.54,VALID,0,VALID,95.3152,VALID,0,VALID,23.9779,VALID,124,VALID,1.15937,
2008-07-07, 00:07:05,VALID,1006.55,VALID,0,VALID,95.1245,VALID,0,VALID,24.0345,VALID,131,VALID,0.9375,
2008-07-07, 00:08:05,VALID,1006.5,VALID,0,VALID,94.9796,VALID,0,VALID,24.1123,VALID,87,VALID,1.16367,
2008-07-07, 00:09:05,VALID,1006.47,VALID,0,VALID,94.6897,VALID,0,VALID,24.1707,VALID,128,VALID,1.63555,
2008-07-07, 00:10:05,VALID,1006.48,VALID,0,VALID,94.4761,VALID,0,VALID,24.2486,VALID,111,VALID,0.983594,
2008-07-07, 00:11:05,VALID,1006.45,VALID,0,VALID,94.2701,VALID,0,VALID,24.3478,VALID,145,VALID,0.838672,
2008-07-07, 00:12:05,VALID,1006.46,VALID,0,VALID,94.0565,VALID,0,VALID,24.3886,VALID,139,VALID,0.534375,
2008-07-07, 00:13:05,VALID,1006.42,VALID,0,VALID,93.8581,VALID,0,VALID,24.3867,VALID,146,VALID,0.85,
2008-07-07, 00:14:05,VALID,1006.38,VALID,0,VALID,93.6064,VALID,0,VALID,24.4043,VALID,175,VALID,1.34102,
2008-07-07, 00:15:05,VALID,1006.44,VALID,0,VALID,93.3241,VALID,0,VALID,24.4433,VALID,169,VALID,1.54258,
2008-07-07, 00:16:04,VALID,1006.44,VALID,0,VALID,93.0266,VALID,0,VALID,24.523,VALID,149,VALID,1.3918,
2008-07-07, 00:17:04,VALID,1006.46,VALID,0,VALID,92.7519,VALID,0,VALID,24.562,VALID,156,VALID,1.05508,
2008-07-07, 00:18:04,VALID,1006.51,VALID,0,VALID,92.5231,VALID,0,VALID,24.5796,VALID,150,VALID,1.52656,
2008-07-07, 00:19:04,VALID,1006.56,VALID,0,VALID,92.3781,VALID,0,VALID,24.6593,VALID,146,VALID,2.60391,
2008-07-07, 00:20:04,VALID,1006.57,VALID,0,VALID,92.462,VALID,0,VALID,24.6788,VALID,136,VALID,1.56914,
2008-07-07, 00:21:04,VALID,1006.62,VALID,0,VALID,92.0043,VALID,0,VALID,24.638,VALID,145,VALID,2.6707,
2008-07-07, 00:22:04,VALID,1006.63,VALID,0,VALID,91.8899,VALID,0,VALID,24.6574,VALID,139,VALID,1.32266,
2008-07-07, 00:23:04,VALID,1006.74,VALID,0.5,VALID,91.7907,VALID,0,VALID,24.6204,VALID,130,VALID,4.25781,
2008-07-07, 00:24:04,VALID,1006.68,VALID,1,VALID,91.8441,VALID,0,VALID,24.3886,VALID,111,VALID,2.8625,
2008-07-07, 00:25:04,VALID,1006.58,VALID,0,VALID,91.8059,VALID,0,VALID,24.1123,VALID,142,VALID,3.59844,
2008-07-07, 00:26:04,VALID,1006.54,VALID,0.5,VALID,92.4315,VALID,0,VALID,23.9566,VALID,128,VALID,2.88711,
2008-07-07, 00:27:04,VALID,1006.3,VALID,0,VALID,93.0189,VALID,0,VALID,23.8805,VALID,127,VALID,2.89648,
2008-07-07, 00:28:04,VALID,1006.5,VALID,0.5,VALID,93.6064,VALID,0,VALID,23.7619,VALID,125,VALID,1.80078,
2008-07-07, 00:29:04,VALID,1006.48,VALID,0.5,VALID,93.9878,VALID,0,VALID,23.7248,VALID,139,VALID,1.71016,
2008-07-07, 06:42:04,VALID,1005.64,VALID,0,VALID,96.5511,VALID,49.7787,VALID,23.5107,VALID,354,VALID,0,
2008-07-07, 06:43:04,VALID,1005.6,VALID,0,VALID,96.5969,VALID,48.773,VALID,23.5478,VALID,354,VALID,0,
2008-07-07, 06:44:04,VALID,1005.59,VALID,0,VALID,96.5816,VALID,48.773,VALID,23.5868,VALID,354,VALID,0,
2008-07-07, 06:45:04,VALID,1005.6,VALID,0,VALID,96.574,VALID,51.5888,VALID,23.6062,VALID,354,VALID,0,
2008-07-07, 06:46:04,VALID,1005.59,VALID,0,VALID,96.5969,VALID,53.8012,VALID,23.6452,VALID,354,VALID,0,
2008-07-07, 06:47:04,VALID,1005.6,VALID,0,VALID,96.5816,VALID,55.5107,VALID,23.7425,VALID,354,VALID,0.0300781,
2008-07-07, 06:48:04,VALID,1005.62,VALID,0,VALID,96.5893,VALID,56.0136,VALID,23.8398,VALID,354,VALID,0,
2008-07-07, 06:49:04,VALID,1005.61,VALID,0,VALID,96.5816,VALID,57.522,VALID,23.9177,VALID,354,VALID,0,
2008-07-07, 06:50:04,VALID,1005.6,VALID,0,VALID,96.5816,VALID,58.4271,VALID,24.015,VALID,354,VALID,0,
2008-07-07, 06:51:04,VALID,1005.61,VALID,0,VALID,96.5511,VALID,58.7288,VALID,24.1142,VALID,354,VALID,0.161328,
2008-07-07, 06:52:04,VALID,1005.63,VALID,0,VALID,96.5511,VALID,58.7288,VALID,24.1142,VALID,354,VALID,0.300781,
2008-07-07, 06:53:04,VALID,1005.63,VALID,0,VALID,96.5206,VALID,58.8293,VALID,24.1318,VALID,354,VALID,0.298828,
2008-07-07, 06:54:04,VALID,1005.63,VALID,0,VALID,96.4977,VALID,58.6282,VALID,24.1123,VALID,354,VALID,0.463672,
2008-07-07, 06:55:04,VALID,1005.65,VALID,0,VALID,96.4825,VALID,59.0304,VALID,24.1726,VALID,354,VALID,0.222656,
2008-07-07, 06:56:04,VALID,1005.63,VALID,0,VALID,96.4443,VALID,59.131,VALID,24.2097,VALID,354,VALID,0.2125,
2008-07-07, 06:57:04,VALID,1005.65,VALID,0,VALID,96.4367,VALID,57.9243,VALID,24.2097,VALID,354,VALID,0.284375,
2008-07-07, 06:58:04,VALID,1005.63,VALID,0,VALID,96.4443,VALID,65.7682,VALID,24.2681,VALID,354,VALID,0.267969,
2008-07-07, 06:59:04,VALID,1005.67,VALID,0,VALID,96.4214,VALID,106.094,VALID,24.307,VALID,354,VALID,0.275,
2008-07-07, 07:00:04,VALID,1005.66,VALID,0,VALID,96.4062,VALID,108.105,VALID,24.3459,VALID,354,VALID,0.421094,
2008-07-07, 07:01:04,VALID,1005.7,VALID,0,VALID,96.368,VALID,88.3948,VALID,24.3478,VALID,354,VALID,0.555469,
2008-07-07, 07:02:04,VALID,1005.72,VALID,0,VALID,96.3451,VALID,84.674,VALID,24.3088,VALID,354,VALID,0.414844,
2008-07-07, 07:03:04,VALID,1005.76,VALID,0,VALID,96.3146,VALID,75.1205,VALID,24.3283,VALID,354,VALID,0.395703,
2008-07-07, 07:04:04,VALID,1005.75,VALID,0,VALID,96.2688,VALID,74.4166,VALID,24.2875,VALID,354,VALID,0.448438,
2008-07-07, 07:05:04,VALID,1005.78,VALID,0,VALID,96.246,VALID,73.2098,VALID,24.3088,VALID,354,VALID,0.315625,
2008-07-07, 07:06:04,VALID,1005.79,VALID,0,VALID,96.2231,VALID,71.098,VALID,24.3088,VALID,354,VALID,0.471484,
2008-07-07, 07:07:04,VALID,1005.81,VALID,0,VALID,96.2078,VALID,68.9862,VALID,24.3088,VALID,354,VALID,0.514063,
2008-07-07, 07:08:04,VALID,1005.82,VALID,0,VALID,96.2154,VALID,116.955,VALID,24.3283,VALID,354,VALID,0.509766,
2008-07-07, 07:09:04,VALID,1005.85,VALID,0,VALID,96.1926,VALID,195.897,VALID,24.3654,VALID,354,VALID,0.472656,
2008-07-07, 07:10:04,VALID,1005.86,VALID,0,VALID,96.2002,VALID,134.453,VALID,24.4257,VALID,354,VALID,0.298047,
2008-07-07, 07:11:04,VALID,1005.81,VALID,0,VALID,96.1926,VALID,191.17,VALID,24.4841,VALID,354,VALID,0.454688,
2008-07-07, 07:12:04,VALID,1005.84,VALID,0,VALID,96.1926,VALID,190.064,VALID,24.5249,VALID,354,VALID,0.43125,
2008-07-07, 07:13:04,VALID,1005.85,VALID,0,VALID,96.2002,VALID,201.629,VALID,24.6204,VALID,354,VALID,0.301953,
2008-07-07, 07:14:04,VALID,1005.82,VALID,0,VALID,96.1773,VALID,217.317,VALID,24.6788,VALID,354,VALID,0.501562,
2008-07-07, 07:15:04,VALID,1005.87,VALID,0,VALID,96.1544,VALID,198.411,VALID,24.7177,VALID,354,VALID,0.489453,
2008-07-07, 07:16:04,VALID,1005.87,VALID,0,VALID,96.1239,VALID,192.578,VALID,24.7761,VALID,354,VALID,0.418359,
2008-07-07, 07:17:04,VALID,1005.91,VALID,0,VALID,96.1239,VALID,220.233,VALID,24.9125,VALID,354,VALID,0.396875,
2008-07-07, 07:18:04,VALID,1005.92,VALID,0,VALID,96.1086,VALID,237.932,VALID,25.0507,VALID,354,VALID,0.327344,
2008-07-07, 07:19:04,VALID,1005.96,VALID,0,VALID,96.0476,VALID,243.161,VALID,25.0877,VALID,354,VALID,0.501562,
2008-07-07, 07:20:04,VALID,1005.97,VALID,0,VALID,96.0171,VALID,250.703,VALID,25.1656,VALID,354,VALID,0.247656,
2008-07-07, 07:21:04,VALID,1005.95,VALID,0,VALID,95.9484,VALID,251.81,VALID,25.263,VALID,354,VALID,0.262891,
2008-07-07, 07:22:04,VALID,1005.98,VALID,0,VALID,95.7806,VALID,253.921,VALID,25.2844,VALID,354,VALID,0.482812,
2008-07-07, 07:23:04,VALID,1005.96,VALID,0,VALID,95.5136,VALID,257.944,VALID,25.3604,VALID,354,VALID,0.208984,
2008-07-07, 07:24:04,VALID,1005.95,VALID,0,VALID,95.2237,VALID,261.061,VALID,25.3993,VALID,354,VALID,0.308203,
2008-07-07, 07:25:04,VALID,1005.91,VALID,0,VALID,94.8956,VALID,262.771,VALID,25.3974,VALID,354,VALID,0.383984,
2008-07-07, 07:26:04,VALID,1005.92,VALID,0,VALID,94.8575,VALID,266.09,VALID,25.4967,VALID,354,VALID,0.300781,
2008-07-07, 07:27:04,VALID,1005.92,VALID,0,VALID,94.2548,VALID,267.799,VALID,25.5357,VALID,354,VALID,0.357812,
2008-07-07, 07:28:04,VALID,1005.93,VALID,0,VALID,93.5911,VALID,270.012,VALID,25.5551,VALID,354,VALID,0.183984,
2008-07-07, 07:29:04,VALID,1005.92,VALID,0,VALID,93.5835,VALID,274.135,VALID,25.5746,VALID,354,VALID,0.329297,
2008-07-07, 07:30:04,VALID,1005.97,VALID,0,VALID,93.3699,VALID,276.649,VALID,25.5941,VALID,354,VALID,0.409766,
2008-07-07, 07:31:04,VALID,1006.01,VALID,0,VALID,92.9961,VALID,278.559,VALID,25.6525,VALID,355,VALID,0.482422,
2008-07-07, 07:32:04,VALID,1006.02,VALID,0,VALID,92.1111,VALID,280.571,VALID,25.6525,VALID,356,VALID,0.408203,
2008-07-07, 07:33:04,VALID,1006.07,VALID,0,VALID,91.9662,VALID,283.688,VALID,25.7324,VALID,7,VALID,0.636719,
2008-07-07, 07:34:04,VALID,1006.09,VALID,0,VALID,91.1117,VALID,286.806,VALID,25.7324,VALID,17,VALID,0.680469,
2008-07-07, 07:35:04,VALID,1006.08,VALID,0,VALID,90.7684,VALID,290.727,VALID,25.7519,VALID,17,VALID,0.594531,
2008-07-07, 07:36:04,VALID,1006.08,VALID,0,VALID,90.6235,VALID,292.94,VALID,25.7499,VALID,17,VALID,0.516406,
2008-07-07, 07:37:04,VALID,1006.1,VALID,0,VALID,90.2497,VALID,295.555,VALID,25.8298,VALID,17,VALID,0.594922,
2008-07-07, 07:38:04,VALID,1006.07,VALID,0,VALID,89.7385,VALID,299.577,VALID,25.8687,VALID,17,VALID,0.575391,
2008-07-07, 07:39:04,VALID,1006.11,VALID,0,VALID,89.6393,VALID,302.594,VALID,25.8882,VALID,17,VALID,0.485547,
2008-07-07, 07:40:04,VALID,1006.14,VALID,0,VALID,89.6393,VALID,305.007,VALID,25.9856,VALID,17,VALID,0.369922,
2008-07-07, 07:41:04,VALID,1006.14,VALID,0,VALID,90.6387,VALID,308.427,VALID,26.081,VALID,17,VALID,0.132422,
2008-07-07, 07:42:04,VALID,1006.12,VALID,0,VALID,90.3565,VALID,311.242,VALID,26.2369,VALID,17,VALID,0.224219,
2008-07-07, 07:43:04,VALID,1006.15,VALID,0,VALID,90.2878,VALID,314.36,VALID,26.3713,VALID,17,VALID,0,
2008-07-07, 07:44:04,VALID,1006.16,VALID,0,VALID,89.3952,VALID,316.673,VALID,26.5291,VALID,17,VALID,0.0503906,
2008-07-07, 07:45:04,VALID,1006.2,VALID,0,VALID,90.0284,VALID,320.695,VALID,26.7065,VALID,17,VALID,0,
2008-07-07, 07:46:04,VALID,1006.18,VALID,0,VALID,89.6241,VALID,324.919,VALID,26.9013,VALID,17,VALID,0.00507812,
2008-07-07, 07:47:04,VALID,1006.21,VALID,0,VALID,88.6094,VALID,328.74,VALID,26.9988,VALID,17,VALID,0.135547,
2008-07-07, 07:48:04,VALID,1006.22,VALID,0,VALID,87.2134,VALID,331.958,VALID,27.0357,VALID,17,VALID,0.224609,
2008-07-07, 07:49:04,VALID,1006.22,VALID,0,VALID,86.2826,VALID,334.975,VALID,26.9967,VALID,359,VALID,0.403125,
2008-07-07, 07:50:04,VALID,1006.23,VALID,0,VALID,86.542,VALID,339.702,VALID,26.9772,VALID,358,VALID,0.169531,
2008-07-07, 07:51:04,VALID,1006.25,VALID,0,VALID,87.3888,VALID,327.936,VALID,27.0162,VALID,358,VALID,0.0046875,
2008-07-07, 07:52:04,VALID,1006.23,VALID,0,VALID,86.3132,VALID,284.191,VALID,27.0962,VALID,357,VALID,0.296484,
2008-07-07, 07:53:04,VALID,1006.2,VALID,0,VALID,85.474,VALID,271.922,VALID,27.0183,VALID,222,VALID,0.422266,
2008-07-07, 07:54:04,VALID,1006.2,VALID,0,VALID,86.1072,VALID,349.557,VALID,26.9793,VALID,220,VALID,0.25,
2008-07-07, 07:55:04,VALID,1006.21,VALID,0,VALID,85.9546,VALID,333.668,VALID,27.0162,VALID,321,VALID,0.361719,
2008-07-07, 07:56:04,VALID,1006.21,VALID,0,VALID,86.7022,VALID,374.094,VALID,27.0942,VALID,321,VALID,0.278516,
2008-07-07, 07:57:04,VALID,1006.21,VALID,0,VALID,85.4053,VALID,376.91,VALID,27.2911,VALID,326,VALID,0.470313,
2008-07-07, 07:58:04,VALID,1006.2,VALID,0,VALID,84.1237,VALID,378.418,VALID,27.3496,VALID,297,VALID,0.578125,
2008-07-07, 07:59:04,VALID,1006.2,VALID,0,VALID,83.8109,VALID,383.849,VALID,27.367,VALID,280,VALID,0.299609,
2008-07-07, 08:00:04,VALID,1006.2,VALID,0,VALID,83.8033,VALID,387.067,VALID,27.3865,VALID,349,VALID,0.778516,
2008-07-07, 08:01:04,VALID,1006.24,VALID,0,VALID,84.116,VALID,389.983,VALID,27.525,VALID,341,VALID,0.611328,
2008-07-07, 08:02:04,VALID,1006.2,VALID,0,VALID,83.8338,VALID,398.43,VALID,27.6008,VALID,288,VALID,0.941406,
2008-07-07, 08:03:04,VALID,1006.24,VALID,0,VALID,84.4822,VALID,388.575,VALID,27.6983,VALID,284,VALID,0.526172,
2008-07-07, 08:04:04,VALID,1006.22,VALID,0,VALID,80.8814,VALID,374.195,VALID,27.7957,VALID,291,VALID,0.810938,
2008-07-07, 08:05:04,VALID,1006.24,VALID,0,VALID,82.9793,VALID,418.744,VALID,27.7762,VALID,295,VALID,0.353906,
2008-07-07, 08:06:04,VALID,1006.24,VALID,0,VALID,80.8738,VALID,422.264,VALID,27.7783,VALID,300,VALID,0.852344,
2008-07-07, 08:07:04,VALID,1006.25,VALID,0,VALID,81.8655,VALID,226.971,VALID,27.7783,VALID,319,VALID,0.457031,
2008-07-07, 08:08:04,VALID,1006.27,VALID,0,VALID,81.9876,VALID,452.634,VALID,27.8152,VALID,330,VALID,0.0664063,
2008-07-07, 08:09:04,VALID,1006.29,VALID,0,VALID,80.0346,VALID,151.247,VALID,27.7762,VALID,243,VALID,0,
2008-07-07, 08:10:04,VALID,1006.28,VALID,0,VALID,81.0187,VALID,127.313,VALID,27.6809,VALID,205,VALID,0,
2008-07-07, 08:11:04,VALID,1006.29,VALID,0,VALID,80.4389,VALID,175.985,VALID,27.6029,VALID,118,VALID,0.311328,
2008-07-07, 08:12:04,VALID,1006.31,VALID,0,VALID,80.9501,VALID,476.367,VALID,27.4665,VALID,118,VALID,0.367188,
2008-07-07, 08:13:04,VALID,1006.31,VALID,0,VALID,82.636,VALID,278.559,VALID,27.5855,VALID,117,VALID,0.162109,
2008-07-07, 08:14:04,VALID,1006.33,VALID,0,VALID,81.3849,VALID,151.649,VALID,27.6398,VALID,355,VALID,0.629687,
2008-07-07, 08:15:04,VALID,1006.29,VALID,0,VALID,82.8191,VALID,192.88,VALID,27.6398,VALID,354,VALID,0,
2008-07-07, 08:16:04,VALID,1006.34,VALID,0,VALID,81.8426,VALID,230.792,VALID,27.6788,VALID,354,VALID,0.113672,
2008-07-07, 08:17:04,VALID,1006.38,VALID,0,VALID,81.8579,VALID,427.795,VALID,27.6788,VALID,143,VALID,0.262891,
2008-07-07, 08:18:04,VALID,1006.38,VALID,0,VALID,81.7511,VALID,547.465,VALID,27.7567,VALID,175,VALID,0.794531,
2008-07-07, 08:19:04,VALID,1006.4,VALID,0,VALID,79.6074,VALID,572.706,VALID,27.6983,VALID,188,VALID,1.10898,
2008-07-07, 08:20:04,VALID,1006.42,VALID,0,VALID,79.4624,VALID,185.84,VALID,27.6593,VALID,202,VALID,0.753516,
2008-07-07, 08:21:04,VALID,1006.4,VALID,0,VALID,80.1795,VALID,161.102,VALID,27.5034,VALID,187,VALID,0.828906,
2008-07-07, 08:22:04,VALID,1006.42,VALID,0,VALID,80.8051,VALID,156.375,VALID,27.328,VALID,164,VALID,0.423047,
2008-07-07, 08:23:04,VALID,1006.42,VALID,0,VALID,81.6672,VALID,157.884,VALID,27.2521,VALID,139,VALID,0.565234,
2008-07-07, 08:24:04,VALID,1006.39,VALID,0,VALID,81.7358,VALID,163.515,VALID,27.1916,VALID,104,VALID,0.528906,
2008-07-07, 08:25:04,VALID,1006.36,VALID,0,VALID,82.1478,VALID,159.091,VALID,27.1721,VALID,104,VALID,0.245312,
2008-07-07, 08:26:04,VALID,1006.38,VALID,0,VALID,83.1701,VALID,151.146,VALID,27.2131,VALID,104,VALID,0.00117188,
2008-07-07, 08:27:04,VALID,1006.35,VALID,0,VALID,82.6208,VALID,144.61,VALID,27.2306,VALID,104,VALID,0.000390625,
2008-07-07, 08:28:04,VALID,1006.35,VALID,0,VALID,82.7352,VALID,146.017,VALID,27.2695,VALID,104,VALID,0.214062,
2008-07-07, 08:29:04,VALID,1006.36,VALID,0,VALID,82.3232,VALID,173.169,VALID,27.25,VALID,79,VALID,0.449219,
2008-07-07, 08:30:04,VALID,1006.36,VALID,0,VALID,81.8426,VALID,568.382,VALID,27.25,VALID,50,VALID,0.63125,
2008-07-07, 08:31:04,VALID,1006.38,VALID,0,VALID,82.6208,VALID,567.678,VALID,27.3649,VALID,50,VALID,0.025,
2008-07-07, 08:32:04,VALID,1006.37,VALID,0,VALID,82.4835,VALID,202.634,VALID,27.5618,VALID,50,VALID,0.00351562,
2008-07-07, 08:33:04,VALID,1006.38,VALID,0,VALID,82.6894,VALID,170.856,VALID,27.6593,VALID,96,VALID,0.664453,
2008-07-07, 08:34:04,VALID,1006.38,VALID,0,VALID,81.9647,VALID,155.169,VALID,27.6593,VALID,213,VALID,0.869922,
2008-07-07, 08:35:04,VALID,1006.38,VALID,0,VALID,81.9113,VALID,165.828,VALID,27.6593,VALID,256,VALID,0.569922,
2008-07-07, 08:36:04,VALID,1006.34,VALID,0,VALID,79.9812,VALID,401.548,VALID,27.6788,VALID,300,VALID,0.428516,
2008-07-07, 08:37:04,VALID,1006.36,VALID,0,VALID,80.7822,VALID,328.036,VALID,27.7978,VALID,291,VALID,0,
2008-07-07, 08:38:04,VALID,1006.35,VALID,0,VALID,82.0486,VALID,670.051,VALID,27.9127,VALID,240,VALID,0.221484,
2008-07-07, 08:39:04,VALID,1006.36,VALID,0,VALID,81.3544,VALID,694.488,VALID,28.0296,VALID,241,VALID,0.269531,
2008-07-07, 08:40:04,VALID,1006.34,VALID,0,VALID,77.4637,VALID,523.631,VALID,28.205,VALID,196,VALID,0.684766,
2008-07-07, 08:41:04,VALID,1006.33,VALID,0,VALID,78.3867,VALID,680.007,VALID,28.322,VALID,276,VALID,0.493359,
2008-07-07, 08:42:04,VALID,1006.32,VALID,0,VALID,76.8686,VALID,736.724,VALID,28.5169,VALID,250,VALID,0.510156,
2008-07-07, 08:43:04,VALID,1006.3,VALID,0,VALID,76.6626,VALID,713.997,VALID,28.5364,VALID,196,VALID,0.286719,
2008-07-07, 08:44:04,VALID,1006.33,VALID,0,VALID,76.922,VALID,714.198,VALID,28.6729,VALID,218,VALID,0.721094,
2008-07-07, 08:45:04,VALID,1006.35,VALID,0,VALID,74.4655,VALID,709.069,VALID,28.8115,VALID,268,VALID,0.476172,
2008-07-07, 08:46:04,VALID,1006.36,VALID,0,VALID,75.7929,VALID,353.78,VALID,28.948,VALID,259,VALID,0.290625,
2008-07-07, 08:47:04,VALID,1006.4,VALID,0,VALID,74.3816,VALID,175.885,VALID,28.909,VALID,209,VALID,1.00664,
2008-07-07, 08:48:04,VALID,1006.4,VALID,0,VALID,76.1286,VALID,141.19,VALID,28.5754,VALID,192,VALID,1.8418,
2008-07-07, 08:49:04,VALID,1006.41,VALID,0,VALID,78.6309,VALID,131.838,VALID,28.2635,VALID,201,VALID,1.12422,
2008-07-07, 08:50:04,VALID,1006.41,VALID,0,VALID,79.6226,VALID,127.011,VALID,27.9927,VALID,183,VALID,1.2668,
2008-07-07, 08:51:04,VALID,1006.42,VALID,0,VALID,81.1637,VALID,121.279,VALID,27.7199,VALID,183,VALID,1.10117,
2008-07-07, 08:52:04,VALID,1006.41,VALID,0,VALID,82.3004,VALID,121.681,VALID,27.5229,VALID,183,VALID,1.225,
2008-07-07, 08:53:04,VALID,1006.4,VALID,0,VALID,81.5298,VALID,122.486,VALID,27.328,VALID,181,VALID,1.65977,
2008-07-07, 08:54:04,VALID,1006.41,VALID,0,VALID,82.8649,VALID,125.905,VALID,27.1721,VALID,217,VALID,1.06641,
2008-07-07, 08:55:04,VALID,1006.44,VALID,0,VALID,84.6653,VALID,133.447,VALID,27.1136,VALID,170,VALID,0.453906,
2008-07-07, 08:56:04,VALID,1006.43,VALID,0,VALID,85.0849,VALID,134.855,VALID,27.0767,VALID,193,VALID,0.979688,
2008-07-07, 08:57:04,VALID,1006.43,VALID,0,VALID,85.0468,VALID,143.302,VALID,27.0377,VALID,195,VALID,1.07734,
2008-07-07, 08:58:04,VALID,1006.42,VALID,0,VALID,84.8637,VALID,151.146,VALID,26.9578,VALID,207,VALID,0.605859,
2008-07-07, 08:59:04,VALID,1006.42,VALID,0,VALID,84.9628,VALID,221.54,VALID,26.9383,VALID,212,VALID,0.783203,
2008-07-07, 09:00:04,VALID,1006.44,VALID,0,VALID,85.4511,VALID,523.028,VALID,26.9967,VALID,214,VALID,0.860937,
2008-07-07, 09:01:04,VALID,1006.45,VALID,0,VALID,85.0162,VALID,643.201,VALID,27.1157,VALID,191,VALID,0.719922,
2008-07-07, 09:02:04,VALID,1006.45,VALID,0,VALID,83.2997,VALID,637.569,VALID,27.25,VALID,208,VALID,0.395312,
2008-07-07, 09:03:04,VALID,1006.45,VALID,0,VALID,82.0944,VALID,633.647,VALID,27.4254,VALID,213,VALID,0.41875,
2008-07-07, 09:04:04,VALID,1006.48,VALID,0,VALID,81.9876,VALID,632.641,VALID,27.7004,VALID,268,VALID,0.8125,
2008-07-07, 09:05:04,VALID,1006.49,VALID,0,VALID,79.2488,VALID,636.765,VALID,27.9516,VALID,295,VALID,1.64063,
2008-07-07, 09:06:04,VALID,1006.5,VALID,0,VALID,80.2406,VALID,629.524,VALID,28.1292,VALID,306,VALID,0.828906,
2008-07-07, 09:07:04,VALID,1006.5,VALID,0,VALID,77.9138,VALID,616.753,VALID,28.2851,VALID,203,VALID,1.27734,
2008-07-07, 09:08:04,VALID,1006.53,VALID,0,VALID,76.8839,VALID,641.189,VALID,28.3046,VALID,163,VALID,1.47422,
2008-07-07, 09:09:04,VALID,1006.53,VALID,0,VALID,77.7459,VALID,674.979,VALID,28.2245,VALID,181,VALID,1.46602,
2008-07-07, 09:10:04,VALID,1006.53,VALID,0,VALID,77.5933,VALID,664.218,VALID,28.1682,VALID,179,VALID,1.70664,
2008-07-07, 09:11:04,VALID,1006.56,VALID,0,VALID,79.3556,VALID,650.441,VALID,28.1487,VALID,167,VALID,1.29883,
2008-07-07, 09:12:04,VALID,1006.58,VALID,0,VALID,78.6843,VALID,647.927,VALID,28.3025,VALID,273,VALID,0.823828,
2008-07-07, 09:13:04,VALID,1006.61,VALID,0,VALID,78.2113,VALID,629.725,VALID,28.5169,VALID,232,VALID,0.597266,
2008-07-07, 09:14:04,VALID,1006.56,VALID,0,VALID,76.594,VALID,644.508,VALID,28.7335,VALID,300,VALID,0.871484,
2008-07-07, 09:15:04,VALID,1006.54,VALID,0,VALID,77.6849,VALID,631.234,VALID,28.9458,VALID,218,VALID,0.938672,
2008-07-07, 09:16:04,VALID,1006.56,VALID,0,VALID,74.1298,VALID,561.141,VALID,28.987,VALID,191,VALID,0.596094,
2008-07-07, 09:17:04,VALID,1006.57,VALID,0,VALID,77.3645,VALID,564.661,VALID,28.8873,VALID,205,VALID,0.439453,
2008-07-07, 09:18:04,VALID,1006.6,VALID,0,VALID,76.51,VALID,647.625,VALID,29.0238,VALID,276,VALID,1.08516,
2008-07-07, 09:19:04,VALID,1006.59,VALID,0,VALID,73.4432,VALID,637.871,VALID,29.1625,VALID,269,VALID,1.1375,
2008-07-07, 09:20:04,VALID,1006.58,VALID,0,VALID,72.8711,VALID,570.795,VALID,29.221,VALID,207,VALID,0.731641,
2008-07-07, 09:21:04,VALID,1006.54,VALID,0,VALID,73.3212,VALID,347.043,VALID,29.143,VALID,273,VALID,1.01094,
2008-07-07, 09:22:04,VALID,1006.51,VALID,0,VALID,75.0606,VALID,262.268,VALID,29.0455,VALID,189,VALID,0.892187,
2008-07-07, 09:23:04,VALID,1006.48,VALID,0,VALID,75.4878,VALID,209.07,VALID,28.87,VALID,209,VALID,0.432031,
2008-07-07, 09:24:04,VALID,1006.49,VALID,0,VALID,76.2888,VALID,174.778,VALID,28.6729,VALID,183,VALID,1.82031,
2008-07-07, 09:25:04,VALID,1006.47,VALID,0,VALID,76.7084,VALID,152.655,VALID,28.4,VALID,184,VALID,1.59531,
2008-07-07, 09:26:04,VALID,1006.49,VALID,0,VALID,77.3874,VALID,146.42,VALID,28.166,VALID,191,VALID,1.04414,
2008-07-07, 09:27:04,VALID,1006.48,VALID,0,VALID,79.0657,VALID,159.091,VALID,27.9516,VALID,194,VALID,1.03945,
2008-07-07, 09:28:04,VALID,1006.52,VALID,0,VALID,79.882,VALID,175.281,VALID,27.7762,VALID,186,VALID,0.753906,
2008-07-07, 09:29:04,VALID,1006.52,VALID,0,VALID,79.9812,VALID,181.416,VALID,27.6593,VALID,183,VALID,1.08477,
2008-07-07, 09:30:04,VALID,1006.52,VALID,0,VALID,80.1338,VALID,180.008,VALID,27.6029,VALID,183,VALID,0.899609,
2008-07-07, 09:31:04,VALID,1006.51,VALID,0,VALID,81.507,VALID,198.813,VALID,27.5444,VALID,235,VALID,0.510156,
2008-07-07, 09:32:04,VALID,1006.51,VALID,0,VALID,82.1173,VALID,212.59,VALID,27.5618,VALID,237,VALID,0.107031,
2008-07-07, 09:33:04,VALID,1006.47,VALID,0,VALID,81.156,VALID,381.134,VALID,27.6203,VALID,271,VALID,0.337891,
2008-07-07, 09:34:04,VALID,1006.48,VALID,0,VALID,80.2482,VALID,462.891,VALID,27.7762,VALID,293,VALID,0.817578,
2008-07-07, 09:35:04,VALID,1006.47,VALID,0,VALID,79.1039,VALID,270.816,VALID,27.9516,VALID,231,VALID,0.79375,
2008-07-07, 09:36:04,VALID,1006.46,VALID,0,VALID,78.1121,VALID,211.182,VALID,27.9127,VALID,240,VALID,0.919922,
2008-07-07, 09:37:04,VALID,1006.44,VALID,0,VALID,78.6538,VALID,201.428,VALID,27.8737,VALID,247,VALID,0.295703,
2008-07-07, 09:38:04,VALID,1006.48,VALID,0,VALID,77.8909,VALID,215.506,VALID,27.8932,VALID,226,VALID,0.245703,
2008-07-07, 09:39:04,VALID,1006.49,VALID,0,VALID,78.6614,VALID,304.102,VALID,27.9516,VALID,271,VALID,0.275391,
2008-07-07, 09:40:04,VALID,1006.48,VALID,0,VALID,78.7224,VALID,323.209,VALID,28.0296,VALID,271,VALID,0.232422,
2008-07-07, 09:41:04,VALID,1006.47,VALID,0,VALID,79.0352,VALID,415.828,VALID,28.1292,VALID,265,VALID,0.200781,
2008-07-07, 09:42:04,VALID,1006.48,VALID,0,VALID,78.1884,VALID,540.425,VALID,28.2851,VALID,218,VALID,0.608594,
2008-07-07, 09:43:04,VALID,1006.47,VALID,0,VALID,77.0746,VALID,280.47,VALID,28.3415,VALID,234,VALID,0.911719,
2008-07-07, 09:44:04,VALID,1006.44,VALID,0,VALID,77.0822,VALID,270.615,VALID,28.3805,VALID,288,VALID,0.683594,
2008-07-07, 09:45:04,VALID,1006.43,VALID,0,VALID,76.9067,VALID,278.559,VALID,28.4389,VALID,187,VALID,0.559766,
2008-07-07, 09:46:04,VALID,1006.4,VALID,0,VALID,75.2513,VALID,296.761,VALID,28.3826,VALID,216,VALID,1.66641,
2008-07-07, 09:47:04,VALID,1006.35,VALID,0,VALID,76.8228,VALID,260.961,VALID,28.1292,VALID,222,VALID,1.77227,